sat.trackr.live / text

‹ back to catalog

GONETS-M 17

NORAD 46486 · 2020-068A

PAYLOAD ACTIVE UNKNOWN

§ Identity

Operator
Country
CIS
Launch date
2020-09-28
Launch site
PLMSC
Launch vehicle
Mass (kg)
RCS (m²)

External: N2YO · Heavens-Above · Gunter

§ Orbital elements

Epoch: 2026-05-25T04:29:18.787200Z

Period
115.86 min
Inclination
82.5004°
Eccentricity
0.0023470
Mean motion
12.42872196 rev/d
Perigee alt
1,476.0 km
Apogee alt
1,512.9 km
Semi-major
7,872.6 km
B*
6.2231e-5
RAAN
1.8131°
Arg perigee
85.2359°
Mean anomaly
275.1400°
Rev number
25,630

§ Raw data

GONETS-M 171 46486U 20068A   26145.18702300  .00000019  00000+0  62231-4 0  99902 46486  82.5004   1.8131 0023470  85.2359 275.1400 12.42872196256308

JSON: /api/v1/satellites/46486 · /tle

For live sub-satellite position, see the globe view (requires WebGL).

§ Visibility from observer

Set your observer location to see the next 7 days of passes ≥ 10°. The values pass through the URL so the page stays shareable.

No JS? Fill the form by hand. The geolocation button needs JavaScript.

§ Radio — SatNOGS DB

ModeDescriptionDownlinkUplink
FM UHF Unknown 387.175 MHz
FM UHF Unknown 387.775 MHz
FM UHF Unknown 388.687 MHz
FM UHF Unknown 388.787 MHz

4 transmitters · refreshed weekly from db.satnogs.org